Regional Weather Roundup
Issued by NWS

Home | Current Version | Previous Version | Graphics & Text | Print | Product List | Glossary On
Versions: 1 2 3 4 5 6 7 8 9 10 11 12 13 14 15 16 17 18 19 20 21 22 23 24 25 26 27 28 29 30 31 32 33 34 35 36 37 38 39 40 41 42 43 44 45 46 47 48 49 50
000
ASUS43 KBIS 222210
RWRND

NORTH DAKOTA REGIONAL WEATHER ROUNDUP
NATIONAL WEATHER SERVICE BISMARCK ND
400 PM CST SUN JAN 22 2017

NOTE: "FAIR" INDICATES FEW OR NO CLOUDS BELOW 12,000 FEET WITH NO
SIGNIFICANT WEATHER AND/OR OBSTRUCTIONS TO VISIBILITY.


NDZ001>003-009>011-017-222300-
NORTHWEST NORTH DAKOTA

CITY           SKY/WX    TMP DP  RH WIND       PRES   REMARKS
WILLISTON      CLOUDY    31  26  82 W10       29.80S
MINOT          CLOUDY    34  28  79 W13       29.75S
MINOT AFB      CLOUDY    32  28  85 NW13      29.74S
$$

NDZ018>021-031>035-040>046-222300-
SOUTHWEST NORTH DAKOTA

CITY           SKY/WX    TMP DP  RH WIND       PRES   REMARKS
BISMARCK       CLOUDY    32  28  85 W10       29.81R
DICKINSON      CLOUDY    27  23  85 NW18      29.78R WCI  14
GARRISON         N/A     31  27  85 W12       29.77R
HETTINGER ARPT CLOUDY    27  23  85 NW17      29.83R WCI  14
$$

NDZ004>008-012>016-024-026-027-054-222300-
NORTHEAST NORTH DAKOTA

CITY           SKY/WX    TMP DP  RH WIND       PRES   REMARKS
GRAND FORKS    CLOUDY    33  28  81 W8        29.74R HAZE
GRND FRKS AFB  CLOUDY    32  28  86 W7        29.74S
DEVILS LAKE    FAIR      30  26  85 W15       29.74R WCI  19
$$

NDZ022-023-025-028>030-036>039-047>053-222300-
SOUTHEAST NORTH DAKOTA

CITY           SKY/WX    TMP DP  RH WIND       PRES   REMARKS
FARGO          CLOUDY    36  32  85 W6        29.76R FOG
JAMESTOWN      CLOUDY    33  28  81 NW14      29.75R
$$




USA.gov is the U.S. government's official web portal to all federal, state and local government web resources and services.